Weather History for Rotterdam, Netherlands

Change the Weather History Date:

Friday, July 11, 2014

  Actual Average Record
Temperature  
Mean Temperature 67 °F -  
Max Temperature 72 °F 69 °F 82 °F (1999)
Min Temperature 62 °F 54 °F 51 °F (2007)
Cooling Degree Days 2    
Growing Degree Days 17 (Base 50)    
Moisture  
Dew Point 62 °F    
Average Humidity 88    
Maximum Humidity 100    
Minimum Humidity 65    
Precipitation  
Precipitation 0.00 in - - ()
Sea Level Pressure  
Sea Level Pressure 29.94 in    
Wind  
Wind Speed 5 mph ()    
Max Wind Speed 13 mph    
Max Gust Speed -    
Visibility 4.1 miles    
Events Rain    
Averages and records for this station are not official NWS values.
T = Trace of Precipitation, MM = Missing Value Source: Averaged Metar Reports

Daily Weather History Graph

Daily Weather History Graph

Search for Another Location

Airport:

Trip Planner

Search our weather history database for the weather conditions in past years. The results will help you decide how hot, cold, wet, or windy it might be!

Date:

Astronomy

Jul. 11, 2014 Rise Set
Actual Time 5:35 AM CEST 9:59 PM CEST
Civil Twilight 4:49 AM CEST 10:45 PM CEST
Nautical Twilight 3:39 AM CEST 11:54 PM CEST
Astronomical Twilight 2:20 AM CEST 1:15 AM CEST
Moon 8:45 PM CEST (7/11) 4:39 AM CEST (7/11)
Length of Visible Light 17h 56m
Length of Day
16h 23m
Waxing Gibbous, 98% of the Moon is Illuminated
Jul 11
Waxing Gibbous
Jul 12
Full
Jul 19
Last Quarter
Jul 27
New
Aug 4
First Quarter

Hourly Weather History & Observations

Time (CEST) Temp. Dew Point Humidity Pressure Visibility Wind Dir Wind Speed Gust Speed Precip Events Conditions
12:00 AM 64 °F 63 °F 94% 29.93 in 3 mi WNW 4.5 mph - -   Mist
12:25 AM 64.4 °F 62.6 °F 94% 29.92 in 3.1 mi NW 5.8 mph - N/A   Overcast
12:55 AM 64.4 °F 62.6 °F 94% 29.92 in - NW 4.6 mph - N/A   Overcast
1:00 AM 64 °F 63 °F 94% 29.93 in 3 mi WNW 2.2 mph - -   Mist
1:25 AM 64.4 °F 62.6 °F 94% 29.92 in - West 3.5 mph - N/A   Overcast
1:55 AM 64.4 °F 62.6 °F 94% 29.92 in - WSW 5.8 mph - N/A   Overcast
2:00 AM 64 °F 62 °F 93% 29.93 in 2 mi WSW 6.7 mph - -   Mist
2:25 AM 64.4 °F 62.6 °F 94% 29.92 in - WSW 4.6 mph - N/A   Overcast
2:55 AM 64.4 °F 62.6 °F 94% 29.92 in - West 5.8 mph - N/A   Overcast
3:00 AM 64 °F 62 °F 93% 29.93 in 2 mi West 6.7 mph - -   Mist
3:25 AM 62.6 °F 62.6 °F 100% 29.95 in 3.1 mi South 4.6 mph - N/A   Partly Cloudy
3:55 AM 62.6 °F 62.6 °F 100% 29.92 in 1.6 mi West 3.5 mph - N/A Rain Rain Showers
4:00 AM 63 °F 63 °F 98% 29.94 in 1 mi WNW 4.5 mph - - Rain Rain Showers
4:25 AM 62.6 °F 62.6 °F 100% 29.92 in 1.4 mi NW 5.8 mph - N/A   Partly Cloudy
4:55 AM 62.6 °F 62.6 °F 100% 29.89 in 1.3 mi West 6.9 mph - N/A   Partly Cloudy
5:00 AM 63 °F 62 °F 96% 29.90 in 1 mi West 8.9 mph - - Rain Rain
5:25 AM 62.6 °F 62.6 °F 100% 29.89 in 1.4 mi WSW 12.7 mph - N/A   Overcast
5:55 AM 62.6 °F 62.6 °F 100% 29.89 in 1.8 mi SW 3.5 mph - N/A   Overcast
6:00 AM 63 °F 62 °F 96% 29.93 in 1 mi 2.2 mph - -   Mist
6:25 AM 62.6 °F 62.6 °F 100% 29.92 in 1.4 mi NNW 3.5 mph - N/A   Overcast
6:55 AM 62.6 °F 62.6 °F 100% 29.92 in 1.2 mi WSW 9.2 mph - N/A   Overcast
7:00 AM 62 °F 62 °F 99% 29.93 in 1 mi WSW 6.7 mph - -   Mist
7:25 AM 62.6 °F 62.6 °F 100% 29.92 in 1.2 mi SW 4.6 mph - N/A   Overcast
7:55 AM 62.6 °F 62.6 °F 100% 29.92 in 1.4 mi Variable 1.2 mph - N/A   Overcast
8:00 AM 63 °F 62 °F 96% 29.94 in 1 mi 2.2 mph - -   Mist
8:25 AM 62.6 °F 62.6 °F 100% 29.92 in 1.2 mi Variable 1.2 mph - N/A   Overcast
8:55 AM 62.6 °F 62.6 °F 100% 29.95 in 1.2 mi Calm Calm - N/A   Overcast
9:00 AM 63 °F 63 °F 99% 29.96 in 1 mi Calm Calm - -   Mist
9:25 AM 64.4 °F 62.6 °F 94% 29.95 in 1.2 mi West 3.5 mph - N/A   Overcast
9:55 AM 64.4 °F 62.6 °F 94% 29.95 in 1.2 mi WSW 3.5 mph - N/A   Overcast
10:00 AM 64 °F 62 °F 93% 29.96 in 1 mi WSW 2.2 mph - -   Mist
10:25 AM 64.4 °F 62.6 °F 94% 29.95 in 1.8 mi West 1.2 mph - N/A   Overcast
10:55 AM 64.4 °F 62.6 °F 94% 29.95 in - Variable 4.6 mph - N/A   Overcast
11:00 AM 65 °F 63 °F 92% 29.96 in 2 mi SSW 4.5 mph - -   Mist
11:25 AM 66.2 °F 62.6 °F 88% 29.95 in - South 4.6 mph - N/A   Overcast
11:55 AM 66.2 °F 62.6 °F 88% 29.95 in - South 3.5 mph - N/A   Overcast
12:00 PM 66 °F 63 °F 85% 29.96 in 3 mi SSE 4.5 mph - -   Mist
12:25 PM 66.2 °F 62.6 °F 88% 29.95 in - South 6.9 mph - N/A   Overcast
12:55 PM 66.2 °F 62.6 °F 88% 29.95 in - SSE 5.8 mph - N/A   Overcast
1:00 PM 67 °F 63 °F 83% 29.96 in 3 mi SSE 6.7 mph - -   Mist
1:25 PM 66.2 °F 62.6 °F 88% 29.95 in 3.7 mi South 8.1 mph - N/A   Mostly Cloudy
1:55 PM 68.0 °F 62.6 °F 83% 29.95 in 4.3 mi South 6.9 mph - N/A   Overcast
2:00 PM 68 °F 63 °F 78% 29.96 in 5 mi South 6.7 mph - -   Mist
2:25 PM 69.8 °F 62.6 °F 78% 29.95 in 5.6 mi South 6.9 mph - N/A   Overcast
2:55 PM 69.8 °F 62.6 °F 78% 29.95 in 6.2 mi South 5.8 mph - N/A   Overcast
3:00 PM 70 °F 62 °F 69% 29.96 in 8 mi South 4.5 mph - -   Partly Cloudy
3:25 PM 71.6 °F 62.6 °F 73% 29.95 in 6.2 mi South 5.8 mph - N/A   Scattered Clouds
3:55 PM 69.8 °F 60.8 °F 73% 29.95 in 6.2 mi SE 5.8 mph - N/A   Mostly Cloudy
4:00 PM 71 °F 62 °F 65% 29.96 in 9 mi South 6.7 mph - -   Partly Cloudy
4:25 PM 71.6 °F 62.6 °F 73% 29.95 in 6.2 mi South 4.6 mph - N/A   Mostly Cloudy
4:55 PM 69.8 °F 60.8 °F 73% 29.95 in 6.2 mi SW 6.9 mph - N/A   Overcast
5:00 PM 71 °F 63 °F 68% 29.96 in 8 mi SW 6.7 mph - -   Overcast
5:25 PM 71.6 °F 62.6 °F 73% 29.95 in 6.2 mi South 6.9 mph - N/A   Mostly Cloudy
5:55 PM 71.6 °F 62.6 °F 73% 29.95 in 6.2 mi SSW 5.8 mph - N/A   Overcast
6:00 PM 71 °F 62 °F 67% 29.95 in 11 mi SW 8.9 mph - -   Mostly Cloudy
6:25 PM 69.8 °F 62.6 °F 78% 29.95 in 6.2 mi WSW 9.2 mph - N/A   Overcast
6:55 PM 69.8 °F 62.6 °F 78% 29.95 in 6.2 mi WSW 9.2 mph - N/A   Scattered Clouds
7:00 PM 69 °F 62 °F 74% 29.95 in 7 mi WSW 8.9 mph - -   Partly Cloudy
7:25 PM 69.8 °F 62.6 °F 78% 29.95 in 6.2 mi WSW 8.1 mph - N/A   Scattered Clouds
7:55 PM 68.0 °F 62.6 °F 83% 29.95 in 6.2 mi WSW 9.2 mph - N/A   Overcast
8:00 PM 68 °F 62 °F 75% 29.96 in 7 mi WSW 8.9 mph - -   Partly Cloudy
8:25 PM 68.0 °F 60.8 °F 78% 29.95 in 6.2 mi WSW 6.9 mph - N/A   Overcast
8:55 PM 66.2 °F 60.8 °F 83% 29.95 in 6.2 mi SW 6.9 mph - N/A   Mostly Cloudy
9:00 PM 66 °F 61 °F 78% 29.97 in 9 mi WSW 6.7 mph - -   Overcast
9:25 PM 66.2 °F 60.8 °F 83% 29.95 in 6.2 mi West 5.8 mph - N/A   Overcast
9:55 PM 64.4 °F 60.8 °F 88% 29.95 in 6.2 mi West 5.8 mph - N/A   Overcast
10:00 PM 64 °F 60 °F 84% 29.97 in 6 mi West 6.7 mph - -   Mist
10:25 PM 64.4 °F 60.8 °F 88% 29.95 in 5.6 mi West 6.9 mph - N/A   Mostly Cloudy
10:55 PM 64.4 °F 60.8 °F 88% 29.95 in 4.3 mi WSW 3.5 mph - N/A   Overcast
11:00 PM 64 °F 60 °F 84% 29.98 in 5 mi West 2.2 mph - -   Mist
11:25 PM 64.4 °F 60.8 °F 88% 29.98 in 5.0 mi SW 3.5 mph - N/A   Overcast
11:55 PM 64.4 °F 60.8 °F 88% 29.95 in 5.0 mi SW 8.1 mph - N/A   Overcast